AirNav   Everest Fuels
 
 318 users online  

7M4 Osceola Municipal Airport
Osceola, Arkansas, USA

GOING TO OSCEOLA?


FAA INFORMATION EFFECTIVE 25 FEBRUARY 2021

Location

FAA Identifier: 7M4
Lat/Long: 35-41-28.1000N 090-00-36.4000W
35-41.468333N 090-00.606667W
35.6911389,-90.0101111
(estimated)
Elevation: 234.7 ft. / 71.5 m (surveyed)
Variation: 02E (1985)
From city: 2 miles SW of OSCEOLA, AR
Time zone: UTC -6 (UTC -5 during Daylight Saving Time)
Zip code: 72370

Airport Operations

Airport use: Open to the public
Activation date: 10/1965
Control tower: no
ARTCC: MEMPHIS CENTER
FSS: JONESBORO FLIGHT SERVICE STATION
NOTAMs facility: JBR (NOTAM-D service available)
Attendance: UNATNDD
FOR ARPT ATTENDANT CALL 870-838-5578.
Wind indicator: lighted
Segmented circle: yes
Lights: ACTVT REIL RWY 19; MIRL RWY 01/19 - CTAF.
Beacon: white-green (lighted land airport)
Operates sunset to sunrise.

Airport Communications

CTAF/UNICOM: 122.8
MEMPHIS APPROACH: 119.1
MEMPHIS DEPARTURE: 119.1
WX ASOS at HKA (17 nm NE): 135.025 (870-763-8206)

Nearby radio navigation aids

VOR radial/distance  VOR name  Freq  Var
JBRr111/30.2JONESBORO VOR/DME108.6000W
GQEr044/30.8GILMORE VOR/DME113.0004E
DYRr237/39.0DYERSBURG VORTAC116.8003E

Airport Services

Fuel available: 100LL
FUEL AVBL 24 HRS WITH CREDIT CARD.
Parking: hangars and tiedowns
Airframe service: NONE
Powerplant service: NONE
Bottled oxygen: NONE
Bulk oxygen: NONE

Runway Information

Runway 1/19

Dimensions: 3799 x 75 ft. / 1158 x 23 m
Surface: asphalt, in good condition
Weight bearing capacity: 
Single wheel: 8.5
Runway edge lights: medium intensity
RUNWAY 1  RUNWAY 19
Latitude: 35-41.159252N35-41.777922N
Longitude: 090-00.666283W090-00.547943W
Elevation: 234.3 ft.234.1 ft.
Traffic pattern: leftleft
Runway heading: 007 magnetic, 009 true187 magnetic, 189 true
Markings: basic, in good conditionnonprecision, in good condition
Runway end identifier lights: yesyes
Touchdown point: yes, no lightsyes, no lights
Obstructions: 25 ft. tree, 815 ft. from runway, 275 ft. left of centerline, 24:1 slope to clear31 ft. pole, lighted, 550 ft. from runway, 380 ft. left of centerline, 11:1 slope to clear

Airport Ownership and Management from official FAA records

Ownership: Publicly-owned
Owner: CITY OF OSCEOLA
PO BOX 403
OSCEOLA, AR 72370
Phone 870-563-5245
Manager: RUSS THOMASON
200 AIRPORT ROAD
OSCEOLA, AR 72370
Phone 870-838-5578

Airport Operational Statistics

Aircraft based on the field: 14
Single engine airplanes: 14
    
Aircraft operations: avg 36/day *
92% local general aviation
8% transient general aviation
* for 12-month period ending 30 September 2020

Additional Remarks

FOR CD CTC MEMPHIS APCH AT 901-842-8457.

Instrument Procedures

NOTE: All procedures below are presented as PDF files. If you need a reader for these files, you should download the free Adobe Reader.

NOT FOR NAVIGATION. Please procure official charts for flight.
FAA instrument procedures published for use from 25 February 2021 at 0901Z to 25 March 2021 at 0900Z.

 
IAPs - Instrument Approach Procedures
RNAV (GPS) RWY 19   download (214KB)
NOTE: Special Take-Off Minimums/Departure Procedures apply   download (131KB)

Other nearby airports with instrument procedures:

KMXA - Manila Municipal Airport (14 nm NW)
KBYH - Arkansas International Airport (17 nm N)
KHKA - Blytheville Municipal Airport (17 nm NE)
KNQA - Millington-Memphis Airport (21 nm S)
M04 - Covington Municipal Airport (22 nm E)
 
Loc | Ops | Rwys | IFR | FBO | Links
Com | Nav | Svcs | Stats | Notes
Area around 7M4 (Osceola Municipal Airport)
 
Road maps at: MapQuest Bing Google
 
Aerial photo
WARNING: Photo may not be current or correct
Aerial photo of 7M4 (Osceola Municipal Airport)
Photo courtesy of the Arkansas Department of Aeronautics
Taken in the Spring of 2007

Do you have a better or more recent aerial photo of Osceola Municipal Airport that you would like to share? If so, please send us your photo.

 
Sectional chart

 
Airport distance calculator
Flying to Osceola Municipal Airport? Find the distance to fly.

From to 7M4

Sunrise and sunset
Times for 06-Mar-2021
 Local
(UTC-6)
 Zulu
(UTC)
Morning civil twilight05:5911:59
Sunrise06:2412:24
Sunset17:5823:58
Evening civil twilight18:2400:24

Current date and time
Zulu (UTC)  06-Mar-2021 07:44:45
Local (UTC-6)  06-Mar-2021 01:44:45
 
METAR
KHKA 
17nm NE 
060653Z AUTO 02007KT 10SM CLR 03/M01 A3030 RMK AO2 SLP262 T00281011 $
KBYH 
17nm NE 
052154Z 04009G15KT 10SM SCT090 OVC150 08/M01 A3023 RMK LAST
KNQA 
22nm S 
060650Z 04008KT 10SM OVC110 06/M04 A3026
KM04 
22nm E 
060730Z AUTO 04008KT 10SM FEW120 05/M02 A3029 RMK A01
KTKX 
32nm N 
060735Z AUTO 02008KT 10SM CLR 03/M01 A3031 RMK AO2 TSNO
KJBR 
32nm W 
060653Z AUTO 03010KT 10SM CLR 06/M03 A3032 RMK AO2 SLP267 T00561033 TSNO $
TAF
KJBR 
32nm W 
060520Z 0606/0706 04005KT P6SM BKN100 FM060700 02004KT P6SM FEW250 FM061500 06007KT P6SM SKC FM070000 VRB03KT P6SM SKC
KMEM 
37nm S 
060520Z 0606/0712 04007KT P6SM VCSH BKN100 FM061000 03006KT P6SM FEW250 FM061500 03009KT P6SM SKC FM070200 03004KT P6SM SKC
NOTAMs
Click for the latest NOTAMs
NOTAMs are issued by the DoD/FAA and will open in a separate window not controlled by AirNav.

 

 
 

Would you like to see your business listed on this page?

 If your business provides an interesting product or service to pilots, flight crews, aircraft, or users of the Osceola Municipal Airport, you should consider listing it here.  To start the listing process, click on the button below
 
Add a business
 

Other Pages about Osceola Municipal Airport

Update a link
 
Copyright © AirNav, LLC. All rights reserved. Privacy Policy  Contact